Big Bear Station Historical Data
Daily Summary for September 25, 2017 Units:  English    Metric   Both
Next Day »
Daily Weekly Monthly Yearly Custom
  High: Low: Average:
Temperature: 64.8 °F 34.3 °F 46.5 °F
Dew Point: 27.8 °F 18.4 °F 23.3 °F
Humidity: 73% 20% 43%
Wind Speed: 6.3mph 0.0mph 2.1mph
Wind Gust: -999.0mph - -
Wind- - WSW
Pressure: 30.12 in 30.06 in -
Precipitation: 0.00 in    
Historical Graphs
 
 
Tabular Data for September 25, 2017
Time Temperature Dew Point Pressure Wind Wind Speed Wind Gust Humidity Rainfall Rate (Hourly)
00:05 35.8 °F 25.9 °F 30.12 in Calm   -999.0 mph 67% 0 in
00:21 35.6 °F 27.8 °F 30.11 in Calm   -999.0 mph 73% 0 in
00:36 35.6 °F 26.8 °F 30.11 in Calm   -999.0 mph 70% 0 in
00:51 36.0 °F 26.8 °F 30.11 in Calm   -999.0 mph 69% 0 in
01:06 36.7 °F 25.3 °F 30.11 in NNE 1.1 mph -999.0 mph 63% 0 in
01:21 37.2 °F 25.0 °F 30.11 in South 1.7 mph -999.0 mph 61% 0 in
01:37 36.7 °F 24.1 °F 30.11 in South 2.7 mph -999.0 mph 60% 0 in
01:52 36.3 °F 21.7 °F 30.11 in South 2.2 mph -999.0 mph 55% 0 in
02:07 36.9 °F 20.4 °F 30.11 in South 2.2 mph -999.0 mph 51% 0 in
02:22 37.0 °F 20.5 °F 30.11 in South 2.2 mph -999.0 mph 51% 0 in
02:38 36.1 °F 20.6 °F 30.11 in Calm   -999.0 mph 53% 0 in
02:53 36.0 °F 20.1 °F 30.11 in Calm   -999.0 mph 52% 0 in
03:08 36.0 °F 21.0 °F 30.10 in SSW 2.7 mph -999.0 mph 54% 0 in
03:24 35.2 °F 18.4 °F 30.10 in South 1.7 mph -999.0 mph 50% 0 in
03:55 35.4 °F 19.1 °F 30.10 in South 1.7 mph -999.0 mph 51% 0 in
04:10 35.2 °F 19.3 °F 30.10 in South 1.7 mph -999.0 mph 52% 0 in
04:25 34.5 °F 19.6 °F 30.09 in SSE 2.2 mph -999.0 mph 54% 0 in
04:40 35.1 °F 19.7 °F 30.09 in South 1.7 mph -999.0 mph 53% 0 in
04:55 34.9 °F 20.4 °F 30.10 in Calm   -999.0 mph 55% 0 in
05:11 34.7 °F 20.6 °F 30.10 in Calm   -999.0 mph 56% 0 in
05:26 34.7 °F 20.6 °F 30.10 in Calm   -999.0 mph 56% 0 in
05:41 34.5 °F 20.8 °F 30.10 in South 2.7 mph -999.0 mph 57% 0 in
05:56 34.3 °F 19.8 °F 30.10 in South 3.2 mph -999.0 mph 55% 0 in
06:12 34.5 °F 19.1 °F 30.10 in SSE 3.7 mph -999.0 mph 53% 0 in
06:27 35.1 °F 19.2 °F 30.10 in SSE 1.1 mph -999.0 mph 52% 0 in
06:42 35.1 °F 19.7 °F 30.10 in ESE 1.1 mph -999.0 mph 53% 0 in
06:58 35.2 °F 21.5 °F 30.11 in South 2.2 mph -999.0 mph 57% 0 in
07:13 34.7 °F 21.8 °F 30.11 in Calm   -999.0 mph 59% 0 in
07:29 35.1 °F 21.8 °F 30.11 in Calm   -999.0 mph 58% 0 in
07:44 36.1 °F 22.3 °F 30.11 in SSE 1.7 mph -999.0 mph 57% 0 in
07:59 38.3 °F 24.0 °F 30.12 in SSW 2.7 mph -999.0 mph 56% 0 in
08:14 39.6 °F 23.9 °F 30.12 in SSW 2.2 mph -999.0 mph 53% 0 in
08:30 40.8 °F 22.6 °F 30.12 in ENE 1.1 mph -999.0 mph 48% 0 in
08:45 43.2 °F 22.2 °F 30.12 in Calm   -999.0 mph 43% 0 in
09:01 45.1 °F 21.6 °F 30.12 in ESE 1.1 mph -999.0 mph 39% 0 in
09:16 46.6 °F 22.3 °F 30.12 in North 1.1 mph -999.0 mph 38% 0 in
09:31 48.0 °F 22.3 °F 30.12 in ENE 2.2 mph -999.0 mph 36% 0 in
09:46 49.3 °F 21.4 °F 30.12 in WNW 2.7 mph -999.0 mph 33% 0 in
10:01 50.2 °F 22.2 °F 30.12 in West 4.2 mph -999.0 mph 33% 0 in
10:17 51.1 °F 22.2 °F 30.12 in NW 5.8 mph -999.0 mph 32% 0 in
10:32 52.2 °F 22.5 °F 30.12 in NNW 4.7 mph -999.0 mph 31% 0 in
10:47 53.8 °F 24.6 °F 30.12 in NW 3.7 mph -999.0 mph 32% 0 in
11:03 55.4 °F 26.8 °F 30.12 in NW 6.3 mph -999.0 mph 33% 0 in
11:19 55.9 °F 26.5 °F 30.12 in North 4.7 mph -999.0 mph 32% 0 in
11:34 57.4 °F 25.4 °F 30.12 in NW 3.2 mph -999.0 mph 29% 0 in
11:49 58.5 °F 24.6 °F 30.11 in SW 3.7 mph -999.0 mph 27% 0 in
12:05 58.8 °F 23.0 °F 30.11 in NNW 5.3 mph -999.0 mph 25% 0 in
12:20 59.9 °F 23.0 °F 30.10 in NW 3.2 mph -999.0 mph 24% 0 in
12:35 61.2 °F 23.1 °F 30.10 in SSE 2.7 mph -999.0 mph 23% 0 in
12:50 62.1 °F 22.8 °F 30.10 in North 4.2 mph -999.0 mph 22% 0 in
13:06 61.5 °F 21.2 °F 30.10 in South 2.7 mph -999.0 mph 21% 0 in
13:21 63.5 °F 21.7 °F 30.10 in WNW 2.7 mph -999.0 mph 20% 0 in
13:36 64.8 °F 22.8 °F 30.09 in West 3.2 mph -999.0 mph 20% 0 in
13:52 62.4 °F 21.9 °F 30.09 in ESE 2.7 mph -999.0 mph 21% 0 in
14:07 62.6 °F 23.2 °F 30.08 in NW 5.3 mph -999.0 mph 22% 0 in
14:22 61.7 °F 21.3 °F 30.08 in WNW 1.7 mph -999.0 mph 21% 0 in
14:37 61.9 °F 21.5 °F 30.07 in West 6.3 mph -999.0 mph 21% 0 in
14:52 63.1 °F 23.6 °F 30.07 in NNW 2.7 mph -999.0 mph 22% 0 in
15:08 62.1 °F 22.8 °F 30.07 in NNW 4.2 mph -999.0 mph 22% 0 in
15:24 62.8 °F 22.3 °F 30.07 in NNW 5.3 mph -999.0 mph 21% 0 in
15:39 62.4 °F 23.0 °F 30.06 in North 4.2 mph -999.0 mph 22% 0 in
15:54 61.3 °F 24.2 °F 30.06 in NW 5.3 mph -999.0 mph 24% 0 in
16:09 61.2 °F 24.1 °F 30.06 in NNE 3.7 mph -999.0 mph 24% 0 in
16:24 60.4 °F 26.2 °F 30.06 in NW 4.7 mph -999.0 mph 27% 0 in
16:40 59.2 °F 26.1 °F 30.06 in NW 4.7 mph -999.0 mph 28% 0 in
16:55 58.3 °F 26.2 °F 30.06 in NNW 5.3 mph -999.0 mph 29% 0 in
17:11 58.3 °F 26.2 °F 30.06 in NNW 4.7 mph -999.0 mph 29% 0 in
17:26 56.5 °F 25.4 °F 30.07 in NNW 5.3 mph -999.0 mph 30% 0 in
17:42 54.9 °F 24.8 °F 30.07 in NNW 4.7 mph -999.0 mph 31% 0 in
17:57 53.6 °F 26.6 °F 30.07 in NW 4.7 mph -999.0 mph 35% 0 in
18:13 52.9 °F 26.7 °F 30.07 in NW 2.7 mph -999.0 mph 36% 0 in
18:28 52.2 °F 24.7 °F 30.07 in Calm   -999.0 mph 34% 0 in
18:43 50.5 °F 23.8 °F 30.08 in Calm   -999.0 mph 35% 0 in
18:58 49.3 °F 23.5 °F 30.07 in Calm   -999.0 mph 36% 0 in
19:13 48.2 °F 24.4 °F 30.08 in Calm   -999.0 mph 39% 0 in
19:29 47.5 °F 23.8 °F 30.08 in Calm   -999.0 mph 39% 0 in
19:44 46.4 °F 22.8 °F 30.09 in Calm   -999.0 mph 39% 0 in
19:59 45.7 °F 22.1 °F 30.09 in Calm   -999.0 mph 39% 0 in
20:15 45.0 °F 21.5 °F 30.09 in Calm   -999.0 mph 39% 0 in
20:45 43.7 °F 25.3 °F 30.09 in Calm   -999.0 mph 48% 0 in
21:00 42.8 °F 24.5 °F 30.09 in Calm   -999.0 mph 48% 0 in
21:15 42.4 °F 25.5 °F 30.10 in Calm   -999.0 mph 51% 0 in
21:30 42.1 °F 26.2 °F 30.09 in Calm   -999.0 mph 53% 0 in
21:46 41.2 °F 25.8 °F 30.10 in Calm   -999.0 mph 54% 0 in
22:01 41.2 °F 26.7 °F 30.10 in Calm   -999.0 mph 56% 0 in
22:16 40.5 °F 26.0 °F 30.10 in Calm   -999.0 mph 56% 0 in
22:31 40.1 °F 25.7 °F 30.10 in Calm   -999.0 mph 56% 0 in
22:46 39.2 °F 25.7 °F 30.10 in Calm   -999.0 mph 58% 0 in
23:02 39.4 °F 25.8 °F 30.10 in Calm   -999.0 mph 58% 0 in
23:17 39.2 °F 25.7 °F 30.10 in Calm   -999.0 mph 58% 0 in
23:32 39.0 °F 26.7 °F 30.10 in Calm   -999.0 mph 61% 0 in
23:47 39.6 °F 27.6 °F 30.10 in Calm   -999.0 mph 62% 0 in
Big Bear CA Weather